Aeroporto :
LOGIN :

Iscrizione | Disclaimer

   EN    FR    IT 

 










Sommario :    VFR   VFR Marginale   IFR   IFR Intensivo   IFR Molto Intensivo
Visibilità : 
Base nubi : 
>= 8 km
>= 3000ft
5 / 8 km
1000 / 3000 ft
1500m / 5 km
500 / 1000 ft
800 / 1500m
200 / 500 ft
< 800m
< 200 ft
Simboli :   Temporali  Nebbia  Neve Forte  Precipitazioni Forti  Vento > 20 kt
SIGMETs :   Varie  Temporali  Ghiacco  Turbolenza  Onda orograficha  Ceneri Vulcaniche







- Altitudine del aeroporto : 459 ft
- Codice IATA : CER
- Carte del aeroporto


LFRC - Cherbourg / Maupertus

ULTIMO METAR :
  • 182230Z AUTO 20007KT 9999 BKN044 16/13 Q1015

METARs OBSOLETI :
  • 182200Z AUTO 20006KT 9999 BKN044 16/13 Q1015
  • 182130Z AUTO 21005KT 9999 FEW028 OVC043 15/12 Q1015
  • 182100Z AUTO 22006KT 9999 FEW036 OVC045 16/13 Q1015
  • 182030Z AUTO 21005KT 9999 SCT034 OVC049 16/13 Q1015
  • 182000Z AUTO 20005KT 9999 FEW040 OVC050 17/13 Q1015

TAF TAF LFRC
Valido dal 18 a 15 ore il 19 a 00 ore UTC


181400Z 1815/1824 23013KT 9999 SCT025
BECMG 1815/1818 23005KT
Nessun NOTAM noto per questo aeroporto.



MetMap, La meteo Aeronautica in un colpo d'occhio ! - Copyright ORBIFLY Dicembre 2007 - Disclaimer

ORBIFLY MET'MAP TEAM :

Programmazione e sviluppo : Alexandra Zaïnal
Concezione e sviluppo : Baudouin d'Aumeries
Co-Programmazione e sviluppo : Marc-Olivier Méhu
Supporto tecnico e logistico : Manuel Goepfert
Aiuto per la traduzione : Arnaldo La Scala

Contatto : metmap@orbifly.com




FONTI E CREDITI :

   NOAA